TimeCDT,TemperatureF,Dew PointF,Humidity,Sea Level PressureIn,VisibilityMPH,Wind Direction,Wind SpeedMPH,Gust SpeedMPH,PrecipitationIn,Events,Conditions,WindDirDegrees,DateUTC
12:56 AM,70.0,66.0,87,29.76,10.0,Calm,Calm,-,N/A,,Clear,0,2013-07-01 05:56:00
1:56 AM,70.0,66.0,87,29.76,10.0,Calm,Calm,-,N/A,,Clear,0,2013-07-01 06:56:00
2:56 AM,69.1,64.9,87,29.76,10.0,Calm,Calm,-,N/A,,Scattered Clouds,0,2013-07-01 07:56:00
3:56 AM,66.9,64.9,93,29.76,10.0,Calm,Calm,-,N/A,,Clear,0,2013-07-01 08:56:00
4:56 AM,66.9,64.9,93,29.78,10.0,Calm,Calm,-,N/A,,Clear,0,2013-07-01 09:56:00
5:56 AM,66.9,64.9,93,29.80,10.0,Calm,Calm,-,N/A,,Partly Cloudy,0,2013-07-01 10:56:00
6:09 AM,68.0,64.4,88,29.81,10.0,Calm,Calm,-,N/A,,Mostly Cloudy,0,2013-07-01 11:09:00
6:26 AM,66.2,64.4,94,29.82,10.0,Calm,Calm,-,N/A,,Mostly Cloudy,0,2013-07-01 11:26:00
6:56 AM,68.0,66.0,93,29.81,5.0,Calm,Calm,-,N/A,,Overcast,0,2013-07-01 11:56:00
7:05 AM,69.8,66.2,88,29.82,1.0,Calm,Calm,-,N/A,,Overcast,0,2013-07-01 12:05:00
7:11 AM,69.8,66.2,88,29.82,4.0,Calm,Calm,-,N/A,,Overcast,0,2013-07-01 12:11:00
7:14 AM,69.8,68.0,94,29.82,1.8,Calm,Calm,-,N/A,,Overcast,0,2013-07-01 12:14:00
7:28 AM,69.8,69.8,100,29.83,0.8,Calm,Calm,-,N/A,,Overcast,0,2013-07-01 12:28:00
7:36 AM,71.6,69.8,94,29.83,2.0,Calm,Calm,-,N/A,,Overcast,0,2013-07-01 12:36:00
7:56 AM,71.1,69.1,93,29.82,4.0,West,3.5,-,N/A,,Overcast,280,2013-07-01 12:56:00
8:09 AM,71.6,69.8,94,29.84,8.0,NNW,3.5,-,N/A,,Overcast,330,2013-07-01 13:09:00
8:56 AM,73.0,66.9,81,29.87,9.0,SW,10.4,16.1,0.00,Rain,Light Rain,220,2013-07-01 13:56:00
9:02 AM,71.6,66.2,83,29.88,1.2,SW,9.2,20.7,0.12,Rain,Heavy Rain,230,2013-07-01 14:02:00
9:09 AM,69.8,68.0,94,29.86,0.5,Calm,Calm,-,0.21,Fog-Rain,Heavy Rain,0,2013-07-01 14:09:00
9:14 AM,71.6,68.0,88,29.85,2.0,NE,5.8,-,0.21,Rain,Light Rain,40,2013-07-01 14:14:00
9:21 AM,71.6,68.0,88,29.85,6.0,North,4.6,-,0.22,Rain,Rain,350,2013-07-01 14:21:00
9:56 AM,72.0,69.1,91,29.84,10.0,North,5.8,-,0.22,,Overcast,10,2013-07-01 14:56:00
10:56 AM,78.1,68.0,71,29.85,10.0,Calm,Calm,-,N/A,,Partly Cloudy,0,2013-07-01 15:56:00
11:56 AM,81.0,69.1,67,29.85,10.0,WNW,3.5,-,N/A,,Mostly Cloudy,300,2013-07-01 16:56:00
12:56 PM,84.0,68.0,58,29.83,10.0,NW,5.8,-,N/A,,Clear,310,2013-07-01 17:56:00
1:56 PM,84.9,68.0,57,29.81,10.0,Variable,3.5,-,N/A,,Scattered Clouds,0,2013-07-01 18:56:00
2:56 PM,87.1,66.9,51,29.81,10.0,Variable,3.5,-,N/A,,Clear,0,2013-07-01 19:56:00
3:56 PM,87.1,66.0,49,29.81,10.0,Variable,4.6,-,N/A,,Partly Cloudy,0,2013-07-01 20:56:00
4:56 PM,87.1,64.9,48,29.82,10.0,West,5.8,-,N/A,,Partly Cloudy,280,2013-07-01 21:56:00
5:56 PM,86.0,66.0,51,29.82,10.0,Variable,3.5,-,N/A,,Clear,0,2013-07-01 22:56:00
6:56 PM,84.9,64.9,51,29.85,10.0,NNW,4.6,-,N/A,,Mostly Cloudy,340,2013-07-01 23:56:00
7:56 PM,82.0,66.0,58,29.86,10.0,Calm,Calm,-,N/A,,Scattered Clouds,0,2013-07-02 00:56:00
8:56 PM,78.1,69.1,74,29.87,10.0,Calm,Calm,-,N/A,,Mostly Cloudy,0,2013-07-02 01:56:00
9:56 PM,73.0,69.1,87,29.89,10.0,Calm,Calm,-,N/A,,Clear,0,2013-07-02 02:56:00
10:56 PM,72.0,68.0,87,29.90,10.0,Calm,Calm,-,N/A,,Mostly Cloudy,0,2013-07-02 03:56:00
11:56 PM,73.0,69.1,87,29.90,10.0,Calm,Calm,-,N/A,,Overcast,0,2013-07-02 04:56:00